Track STARLINK-1854 now! 10-day predictions STARLINK-1854 is classified as:
1 47141U 20088V 21021.58335648 .00079106 00000-0 86298-3 0 9992 2 47141 53.0555 70.8646 0001652 37.8252 212.0669 15.62705273 1773